www.pogodaiklimat.ru

Погода и климат >> Архив погоды >> Иран >> Yazd


ПОГОДА в Yazd

  • Прогноз погоды в Yazd
  • Монитор погоды в Yazd
  • Климат города

АРХИВ ПОГОДЫ в Yazd

Время (UTC), дата Ветер
(напр.,м/с)
 
Видим.   Явления Облачность Т
(С)
Тd
(С)
f
(%)
Тe
(С)
Тes
(С)
Комфортность P
(гПа)
Po
(гПа)
Тmin
(С)
Tmax
(С)
R
(мм)
R24
(мм)
S
(см)
12 18.09 СЗ 3 18 км 1/1 1200 м
[Cu hum]
+37.2 -6.7 6 +33 +37 жарко 1004.2 875.5
15 18.09 СЗ 2 18 км 4/1 1200 м
[Cu hum Ac trans]
+33.6 -5.7 8 +30 +30 жарко 1005.3 876.0 +37.9
18 18.09 ЮЗ 4 15 км 3/1 1350 м
[Cu hum Ac trans]
+28.4 -7.2 9 +25 +25 комфорт 1007.0 877.8
21 18.09 СЗ 1 15 км ясно +26.8 -5.2 12 +24 +24 комфорт 1007.7 878.1
00 19.09 З 2 15 км 3/1 1200 м
[Cu hum Ac trans]
+23.3 -4.7 15 +21 +21 комфорт 1008.6 879.4
03 19.09 СЗ 1 10 км ясно +23.6 +0.1 21 +22 +23 комфорт 1010.8 880.8 +23.3
06 19.09 СЗ 2 7000 м мгла ясно +29.0 +0.7 16 +27 +37 жарко 1011.3 881.3
09 19.09 ЮЗ 2 12 км 1/1 1000 м
[Cu hum Ac trans Ci fib]
+34.9 -5.4 7 +31 +45 жарко 1007.3 878.5
12 19.09 З 1 15 км 1/1 1500 м
[Cu hum Ac trans Ci fib]
+36.6 -5.5 7 +32 +38 жарко 1005.6 876.7
15 19.09 С 1 20 км 4/1 1500 м
[Sc diur, vesp Ac trans Ci fib]
+33.1 -3.0 10 +29 +29 жарко 1005.9 876.4 +36.7
18 19.09 З 3 15 км 1/0
[Ac trans]
+29.5 -3.4 12 +26 +26 жарко 1007.3 877.9
21 19.09 З 5 10 км 1/0
[Ac trans]
+27.1 +1.1 18 +25 +25 комфорт 1006.6 878.1
00 20.09 СЗ 8 3000 м пыльный позёмок 5/0
[Ac trans]
+23.9 +7.5 35 +24 +24 комфорт 1009.5 880.5
03 20.09 З 3 3000 м пыльный позёмок 4/1 1200 м
[Cu hum Ac trans]
+23.6 +7.7 36 +24 +24 комфорт 1010.8 880.9 +22.9
06 20.09 В 2 3000 м пыль ясно +27.5 +7.0 27 +27 +37 жарко 1010.8 881.1
09 20.09 В 1 3000 м пыль 1/1 1350 м
[Cu hum]
+32.1 +2.8 16 +29 +46 жарко 1008.7 879.4
12 20.09 Ю 2 4500 м пыль 1/1 1200 м
[Cu hum]
+34.0 +2.3 14 +31 +36 жарко 1006.9 877.6
15 20.09 СЗ 2 8000 м пыль 5/1 1350 м
[Cu hum Ac As Ci fib]
+30.9 -0.8 13 +28 +28 жарко 1008.1 877.9 +34.7
18 20.09 З 5 7000 м пыль 10/3 1500 м
[Sc diur, vesp Ac cuf Cs]
+28.3 +4.4 22 +27 +27 жарко 1010.1 880.1
21 20.09 СЗ 7 10 км 10/0
[Ac und Cs]
+25.0 +5.1 28 +25 +25 комфорт 1010.2 880.4
00 21.09 З 2 12 км 5/5 1500 м
[Sc]
+23.6 +5.1 30 +23 +23 комфорт 1008.7 879.2
03 21.09 З 3 18 км ясно +21.4 +5.0 34 +22 +22 комфорт 1012.0 881.0 +21.3
06 21.09 ЮЗ 1 20 км ясно +25.7 +5.2 27 +25 +37 комфорт 1012.2 881.5
09 21.09 В 2 20 км 1/1 1200 м
[Cu hum]
+30.5 +4.4 19 +28 +42 жарко 1009.0 879.0
12 21.09 С 2 20 км 1/1 1200 м
[Cu med, cong]
+33.5 +3.1 15 +31 +35 жарко 1006.5 877.1
15 21.09 СЗ 3 12 км 1/1 1350 м
[Sc diur, vesp]
+30.2 +3.9 19 +28 +28 жарко 1008.1 877.4 +33.9
18 21.09 З 4 10 км ясно +26.6 +2.6 21 +25 +25 комфорт 1009.9 879.1
21 21.09 З 3 10 км ясно +23.3 +1.8 24 +23 +23 комфорт 1010.1 879.9
00 22.09 З 2 10 км ясно +22.2 +2.2 27 +22 +22 комфорт 1010.5 880.4
03 22.09 штиль 0 20 км ясно +20.5 +1.8 29 +20 +21 1013.0 881.4 +20.1
06 22.09 СЗ 2 20 км ясно +26.4 +2.3 21 +25 +35 комфорт 1013.7 882.5
09 22.09 С 2 20 км 1/1 1050 м
[Cu hum]
+31.6 -0.7 12 +28 +42 жарко 1011.3 880.7
12 22.09 С 5 20 км 1/1 1050 м
[Cu hum]
+33.4 -5.3 8 +29 +32 жарко 1009.0 878.8
15 22.09 С 2 20 км 1/1 1000 м
[Sc diur, vesp]
+30.1 -7.3 8 +26 +26 жарко 1010.7 879.3 +33.8
18 22.09 Ю 4 20 км ясно +28.7 -3.8 12 +26 +26 жарко 1011.1 880.6
21 22.09 ЮВ 3 15 км ясно +26.4 0.0 18 +25 +25 комфорт 1010.9 880.5
00 23.09 Ю 2 20 км ясно +22.2 -1.9 20 +21 +21 комфорт 1011.0 880.6
03 23.09 ЮВ 2 20 км ясно +21.3 +0.3 25 +21 +21 комфорт 1012.2 880.9 +20.2
06 23.09 ЮВ 3 20 км ясно +28.5 -0.8 15 +26 +34 жарко 1011.4 881.3
09 23.09 В 2 20 км 1/1 1200 м
[Cu Sc]
+34.2 -2.6 9 +30 +44 жарко 1008.2 879.1
12 23.09 СЗ 2 20 км 3/3 1200 м
[Cu Sc]
+34.2 -3.8 9 +30 +34 жарко 1007.1 877.3
15 23.09 В 1 20 км 1/1 1000 м
[Sc diur, vesp Ac cuf]
+31.9 -1.8 11 +28 +28 жарко 1007.4 877.0 +35.4
18 23.09 ЮВ 3 15 км 1/1 1200 м
[Cu hum]
+29.2 -2.0 13 +26 +26 жарко 1006.8 877.4
21 23.09 ЮВ 2 15 км 1/1 1000 м
[Sc diur, vesp Ac trans]
+26.8 -1.7 15 +24 +24 комфорт 1005.5 876.9
00 24.09 ЮВ 2 15 км ясно +24.0 -1.8 18 +22 +22 комфорт 1006.1 876.9
03 24.09 ЮВ 2 15 км 1/0
[Ac trans]
+22.6 -2.5 19 +21 +22 комфорт 1007.2 877.1 +22.2
06 24.09 В 3 15 км ясно +30.0 -2.3 12 +27 +35 жарко 1006.6 877.5
09 24.09 ЮЗ 3 15 км 1/1 1000 м
[Cu hum]
+35.4 -9.2 5 +31 +42 жарко 1003.9 875.6
12 24.09 СЗ 6 15 км 1/1 1000 м
[Cu hum]
+36.1 -13.6 4 +31 +33 жарко 1002.3 873.8
15 24.09 С 2 20 км ясно +31.4 -13.8 5 +27 +27 жарко 1003.3 873.4 +36.5
18 24.09 СЗ 4 20 км 1/1 1000 м
[Sc diur, vesp]
+25.7 -2.7 15 +24 +24 комфорт 1004.8 875.2
21 24.09 СЗ 6 4000 м пыль ясно +24.8 -2.0 17 +23 +23 комфорт 1005.7 876.9
00 25.09 СЗ 6 1500 м пыль ?/? +22.0 +5.1 33 +22 +22 комфорт 1006.8 877.6
03 25.09 СЗ 4 3000 м пыль ясно +20.4 +4.6 35 +21 +21 комфорт 1010.2 879.3 +20.4
06 25.09 СЗ 6 5000 м пыль ясно +24.9 +4.2 26 +24 +28 комфорт 1011.5 880.2
09 25.09 СЗ 5 8000 м пыль ясно +28.4 +3.2 20 +27 +34 жарко 1008.8 878.3

 

Местоположение метеостанции Yazd (Иран): широта 31.90 долгота 54.28 высота над уровнем моря 1237 м.

В архиве по умолчанию представлена погода в Yazd за последнюю неделю. Архивные данные за месяц целиком и за предыдущие месяцы, начиная с января 2011 года, Вы можете получить, выбрав интересующий диапазон дат из раскрывающегося списка и нажав кнопку "Ввод!".


*Определитесь, кто Вы:
робот инопланетянин человек

Внимание! Время в таблицах - всемирное. Для получения местного времени необходимо прибавить поправку, которая в Yazd равна 3.5 ч.

Смотрите также архив погоды в соседних городах и на ближайших метеорологических станциях:

Погода в Abadeh (Иран) (172 км)
Погода в Khor (Иран) (222 км)
Погода в Esfahan (Иран) (254 км)
Погода в Yasuj (Иран) (291 км)
Погода в Sirjan (Иран) (303 км)
Погода в Tabas (Иран) (311 км)
Погода в Shiraz (Иран) (312 км)
Погода в Kerman (Иран) (315 км)
Погода в Shahre-Kord (Иран) (326 км)
Погода в Fasa (Иран) (331 км)

Пояснения к столбцам:

Ветер - указаны скорость ветра в м/с - средняя за 10 мин, порывы в срок и между сроками (в фигурных скобках) и направление, откуда дует ветер: С - северный, СВ - северо-восточный, В - восточный, ЮВ - юго-восточный, Ю - южный, ЮЗ - юго-западный, З - западный, СЗ - северо-западный.
Видимость - горизонтальная дальность видимости в метрах или километрах. При видимости от 1 до 10 км при отсутствии осадков обычно наблюдается дымка, при ухудшении видимости до 1 км и менее - туман. В сухую погоду видимость может ухудшаться дымом, пылью или мглою.
Явления - указаны атмосферные явления, наблюдавшиеся в срок или в последний час перед сроком; фигурными скобками обозначены явления, наблюдавшиеся между сроками (за 1-3 часа до срока); квадратными скобками обозначены град или гололедные отложения с указанием их диаметра в мм.
Облачность - указаны через наклонную черту общая и нижняя облачность в баллах и высота нижней границы облаков в метрах; квадратными скобками обозначены формы облаков: Ci - перистые, Cs - перисто-слоистые, Cc - перисто-кучевые, Ac - высококучевые, As - высокослоистые, Sc - слоисто-кучевые, Ns - слоисто-дождевые, Cu - кучевые, Cb - кучево-дождевые. Подробнее классификацию облаков см. в Атласе облаков (PDF).
T - Температура воздуха - температура, измеренная на высоте 2 м над землей.
Td - Температура точки росы - температура, при понижении до которой содержащийся в воздухе водяной пар достигнет насыщения.
f - Относительная влажность воздуха - влажноcть воздуха, измеренная на высоте 2 м над землей.
Te - Эффективная температура - температура, которую ощущает одетый по сезону человек в тени. Характеристика душности погоды. При расчете учитывается влияние влажности воздуха и скорости ветра на теплоощущения человека.
Tes - Эффективная температура на солнце - температура, которую ощущает человек, с поправкой на солнечный нагрев. Характеристика знойности погоды. Зависит от высоты солнца над горизонтом, облачности и скорости ветра. Ночью, в пасмурную погоду, а также при ветре 12 м/с и более поправка равна нулю.
P - Атмосферное давление - приведенное к уровню моря атмосферное давление.
Po - Атмосферное давление - измеренное на уровне метеостанции атмосферное давление.
Tmin - Минимальная температура - минимум температуры воздуха на высоте 2 м над землей.
Tmax - Максимальная температура - максимум температуры воздуха на высоте 2 м над землей.
R - Количество осадков - Количество выпавших осадков за период времени, мм. При наведении курсора мыши на число - период времени, за который выпало указанное количество осадков.
R24 - Количество осадков - Количество выпавших осадков за 24 часа, мм.
S - Снежный покров - Высота снежного покрова, см. При наведении курсора мыши на число - состояние снежного покрова и степень покрытия местности в баллах.